When you browse on this site, cookies collect data to enhance your experience and personalize the content and advertising you see.
Visit our Privacy Policy to learn more. By continuing to use the site, you agree to this use of cookies and data.
  • In Spain
  • List of Countries
  • For 7 days
  • Water Temperature
  • Satellite Maps
  • Weather Map
  • Weather Widgets
  • user-avatar
    Login

    Hourly Weather Shillong

    Today, 20 April, Saturday

    Time Temperature Precipitation Wind Pressure Humidity
    00:00 +16°C° 0 mm 1 mps 630 mmHg 75%
    01:00 +15°C° 0 mm 1 mps 630 mmHg 72%
    02:00 +15°C° 0 mm 1 mps 630 mmHg 70%
    03:00 +15°C° 0 mm 1 mps 629 mmHg 68%
    04:00 +15°C° 0 mm 1 mps 629 mmHg 67%
    05:00 +15°C° 0 mm 1 mps 630 mmHg 67%
    06:00 +15°C° 0 mm 1 mps 630 mmHg 73%
    07:00 +17°C° 0 mm 2 mps 631 mmHg 64%
    08:00 +20°C° 0 mm 2 mps 632 mmHg 54%
    09:00 +23°C° 0 mm 2 mps 633 mmHg 45%
    10:00 +23°C° 0 mm 2 mps 633 mmHg 45%
    11:00 +23°C° 0 mm 2 mps 633 mmHg 45%
    12:00 +23°C° 0 mm 2 mps 632 mmHg 48%
    13:00 +21°C° 0.4 mm 2 mps 632 mmHg 50%
    14:00 +22°C° 0.4 mm 1 mps 631 mmHg 51%
    15:00 +22°C° 0.4 mm 1 mps 631 mmHg 53%
    16:00 +21°C° 0.5 mm 1 mps 630 mmHg 55%
    17:00 +20°C° 0.5 mm 1 mps 630 mmHg 57%
    18:00 +17°C° 0 mm 0 mps 629 mmHg 67%
    19:00 +16°C° 1 mm 0 mps 629 mmHg 68%
    20:00 +15°C° 1 mm 0 mps 629 mmHg 69%
    21:00 +15°C° 1 mm 1 mps 629 mmHg 70%
    22:00 +15°C° 0.4 mm 1 mps 629 mmHg 69%
    23:00 +15°C° 0.4 mm 1 mps 629 mmHg 69%

    Tomorrow, 21 April, Sunday

    Time Temperature Precipitation Wind Pressure Humidity
    00:00 +15°C° 0.4 mm 1 mps 629 mmHg 68%
    01:00 +15°C° 0 mm 1 mps 629 mmHg 68%
    02:00 +15°C° 0 mm 1 mps 629 mmHg 67%
    03:00 +14°C° 0 mm 0 mps 629 mmHg 66%
    04:00 +14°C° 0 mm 0 mps 629 mmHg 67%
    05:00 +14°C° 0 mm 0 mps 629 mmHg 67%
    06:00 +14°C° 0 mm 0 mps 629 mmHg 68%
    07:00 +18°C° 0.1 mm 1 mps 631 mmHg 61%
    08:00 +21°C° 0.1 mm 1 mps 632 mmHg 54%
    09:00 +23°C° 0.1 mm 1 mps 633 mmHg 47%
    10:00 +23°C° 0.6 mm 1 mps 633 mmHg 48%
    11:00 +23°C° 0.6 mm 1 mps 633 mmHg 48%
    12:00 +24°C° 0.6 mm 2 mps 633 mmHg 49%
    13:00 +23°C° 0.3 mm 1 mps 632 mmHg 53%
    14:00 +22°C° 0.3 mm 1 mps 631 mmHg 56%
    15:00 +21°C° 0.3 mm 1 mps 630 mmHg 60%
    16:00 +20°C° 0.2 mm 1 mps 630 mmHg 62%
    17:00 +20°C° 0.2 mm 1 mps 630 mmHg 63%
    18:00 +19°C° 0.2 mm 1 mps 629 mmHg 65%
    19:00 +19°C° 0 mm 1 mps 629 mmHg 66%
    20:00 +18°C° 0 mm 1 mps 630 mmHg 67%
    21:00 +15°C° 0 mm 0 mps 630 mmHg 68%
    22:00 +15°C° 0 mm 0 mps 630 mmHg 68%
    23:00 +16°C° 0 mm 1 mps 630 mmHg 68%

    Day after tomorrow, 22 April, Monday

    Time Temperature Precipitation Wind Pressure Humidity
    00:00 +16°C° 0 mm 1 mps 630 mmHg 69%
    01:00 +16°C° 0 mm 1 mps 629 mmHg 69%
    02:00 +16°C° 0 mm 1 mps 629 mmHg 69%
    03:00 +14°C° 0 mm 0 mps 629 mmHg 69%
    04:00 +14°C° 0.1 mm 0 mps 629 mmHg 69%
    05:00 +14°C° 0.1 mm 0 mps 629 mmHg 70%
    06:00 +14°C° 0.1 mm 0 mps 629 mmHg 71%
    07:00 +19°C° 0.4 mm 1 mps 631 mmHg 64%
    08:00 +21°C° 0.4 mm 1 mps 632 mmHg 57%
    09:00 +24°C° 0.4 mm 1 mps 634 mmHg 51%
    10:00 +25°C° 1.3 mm 1 mps 634 mmHg 48%
    11:00 +26°C° 1.3 mm 1 mps 634 mmHg 45%
    12:00 +26°C° 1.3 mm 2 mps 634 mmHg 43%
    13:00 +25°C° 1 mm 2 mps 633 mmHg 47%
    14:00 +24°C° 1 mm 1 mps 632 mmHg 51%
    15:00 +23°C° 1 mm 1 mps 631 mmHg 55%
    16:00 +22°C° 1 mm 1 mps 630 mmHg 57%
    17:00 +21°C° 1 mm 1 mps 630 mmHg 59%
    18:00 +21°C° 1 mm 1 mps 630 mmHg 61%
    19:00 +20°C° 0.4 mm 1 mps 630 mmHg 63%
    20:00 +19°C° 0.4 mm 1 mps 631 mmHg 64%
    21:00 +16°C° 0.4 mm 0 mps 631 mmHg 65%
    22:00 +18°C° 0 mm 1 mps 631 mmHg 66%
    23:00 +16°C° 0 mm 1 mps 631 mmHg 67%

    23 April, Tuesday

    Time Temperature Precipitation Wind Pressure Humidity
    00:00 +16°C° 0 mm 1 mps 631 mmHg 67%
    01:00 +16°C° 0.5 mm 1 mps 631 mmHg 68%
    02:00 +16°C° 0.5 mm 1 mps 630 mmHg 70%
    03:00 +16°C° 0.5 mm 1 mps 630 mmHg 71%
    04:00 +16°C° 0.9 mm 1 mps 630 mmHg 73%
    05:00 +16°C° 0.9 mm 1 mps 630 mmHg 74%
    06:00 +15°C° 0.9 mm 1 mps 631 mmHg 76%
    07:00 +18°C° 0.6 mm 1 mps 632 mmHg 71%
    08:00 +20°C° 0.6 mm 1 mps 633 mmHg 65%
    09:00 +22°C° 0.6 mm 1 mps 634 mmHg 59%
    10:00 +24°C° 0.9 mm 1 mps 634 mmHg 55%
    11:00 +25°C° 0.9 mm 1 mps 635 mmHg 50%
    12:00 +26°C° 0.9 mm 1 mps 635 mmHg 45%
    13:00 +26°C° 0.5 mm 1 mps 634 mmHg 45%
    14:00 +26°C° 0.5 mm 1 mps 633 mmHg 45%
    15:00 +25°C° 0.5 mm 1 mps 632 mmHg 45%
    16:00 +24°C° 0.3 mm 1 mps 632 mmHg 50%
    17:00 +23°C° 0.3 mm 1 mps 632 mmHg 55%
    18:00 +20°C° 0.3 mm 0 mps 631 mmHg 60%
    19:00 +21°C° 0 mm 1 mps 631 mmHg 63%
    20:00 +20°C° 0 mm 1 mps 632 mmHg 65%
    21:00 +19°C° 0 mm 1 mps 632 mmHg 68%
    22:00 +18°C° 0.5 mm 1 mps 632 mmHg 71%
    23:00 +18°C° 0.5 mm 1 mps 632 mmHg 73%

    24 April, Wednesday

    Time Temperature Precipitation Wind Pressure Humidity
    00:00 +18°C° 0.5 mm 1 mps 631 mmHg 76%
    01:00 +18°C° 0.2 mm 1 mps 631 mmHg 75%
    02:00 +16°C° 0.2 mm 1 mps 631 mmHg 74%
    03:00 +16°C° 0.2 mm 1 mps 631 mmHg 74%
    04:00 +16°C° 0.1 mm 1 mps 631 mmHg 74%
    05:00 +16°C° 0.1 mm 1 mps 631 mmHg 74%
    06:00 +16°C° 0.1 mm 1 mps 632 mmHg 74%
    07:00 +20°C° 0.3 mm 1 mps 633 mmHg 65%
    08:00 +21°C° 0.3 mm 0 mps 634 mmHg 57%
    09:00 +23°C° 0.3 mm 0 mps 636 mmHg 48%
    10:00 +26°C° 0.9 mm 1 mps 636 mmHg 47%
    11:00 +26°C° 0.9 mm 1 mps 635 mmHg 45%
    12:00 +27°C° 0.9 mm 2 mps 635 mmHg 43%
    13:00 +26°C° 0.8 mm 1 mps 634 mmHg 48%
    14:00 +24°C° 0.8 mm 1 mps 633 mmHg 52%
    15:00 +23°C° 0.8 mm 1 mps 632 mmHg 57%
    16:00 +22°C° 0.4 mm 1 mps 631 mmHg 60%
    17:00 +22°C° 0.4 mm 1 mps 631 mmHg 63%
    18:00 +21°C° 0.4 mm 1 mps 631 mmHg 66%
    19:00 +20°C° 0.9 mm 1 mps 631 mmHg 68%
    20:00 +19°C° 0.9 mm 1 mps 631 mmHg 70%
    21:00 +19°C° 0.9 mm 1 mps 632 mmHg 72%
    22:00 +19°C° 0.2 mm 1 mps 631 mmHg 72%
    23:00 +18°C° 0.2 mm 1 mps 631 mmHg 72%

    25 April, Thursday

    Time Temperature Precipitation Wind Pressure Humidity
    00:00 +18°C° 0.2 mm 1 mps 631 mmHg 71%
    01:00 +18°C° 0.2 mm 1 mps 631 mmHg 71%
    02:00 +18°C° 0.2 mm 1 mps 630 mmHg 71%
    03:00 +18°C° 0.2 mm 1 mps 630 mmHg 71%
    04:00 +18°C° 0.4 mm 1 mps 630 mmHg 71%
    05:00 +16°C° 0.4 mm 0 mps 631 mmHg 72%
    06:00 +16°C° 0.4 mm 0 mps 631 mmHg 72%
    07:00 +20°C° 0.4 mm 1 mps 632 mmHg 65%
    08:00 +23°C° 0.4 mm 1 mps 634 mmHg 57%
    09:00 +25°C° 0.4 mm 1 mps 635 mmHg 49%
    10:00 +26°C° 1 mm 1 mps 635 mmHg 48%
    11:00 +26°C° 1 mm 2 mps 635 mmHg 47%
    12:00 +27°C° 1 mm 2 mps 634 mmHg 46%
    13:00 +27°C° 1.2 mm 2 mps 634 mmHg 47%
    14:00 +27°C° 1.2 mm 2 mps 633 mmHg 48%
    15:00 +27°C° 1.2 mm 2 mps 632 mmHg 48%
    16:00 +25°C° 1.1 mm 1 mps 632 mmHg 53%
    17:00 +24°C° 1.1 mm 1 mps 631 mmHg 59%
    18:00 +23°C° 1.1 mm 1 mps 631 mmHg 64%
    19:00 +22°C° 0.8 mm 1 mps 631 mmHg 66%
    20:00 +21°C° 0.8 mm 1 mps 631 mmHg 69%
    21:00 +20°C° 0.8 mm 1 mps 631 mmHg 72%
    22:00 +20°C° 0.2 mm 1 mps 631 mmHg 72%
    23:00 +19°C° 0.2 mm 1 mps 631 mmHg 71%
    Show more